Skip Page Navigation
NASA JPL Caltech
NASA Logo - Jet Propulsion Laboratory + View the NASA Portal
+ Center for Near-Earth Object Studies
JPL Home Earth Solar System Stars & Galaxies Technology
JPL Solar System Dynamics
BODIES ORBITS EPHEMERIDES TOOLS PHYSICAL DATA DISCOVERY FAQ SITE MAP
IMPORTANT: The SSD Announcement email list is now available. Major changes are coming in the near future, including possible hostname and/or URL changes. To be notified of such changes, subscribe to this email list.

Please visit this page for more details.


JPL Small-Body Database Browser
Search: [ help ]  
17289 (2037 P-L)
Classification: Outer Main-belt Asteroid          SPK-ID: 2017289
Ephemeris | Orbit Diagram | Orbital Elements | Mission Design | Physical Parameters | Discovery Circumstances | Close-Approach Data ]

[ show orbit diagram ]
Orbital Elements at Epoch 2459000.5 (2020-May-31.0) TDB
Reference: JPL 24 (heliocentric ecliptic J2000)
 Element Value Uncertainty (1-sigma)   Units 
e .1333647857441236 3.8654e-08  
a 3.231193445063561 2.493e-08 au
q 2.800266023564843 1.2653e-07 au
i 18.3757038574537 5.9749e-06 deg
node 2.012377874509552 1.3312e-05 deg
peri 252.2492271990508 2.5684e-05 deg
M 217.1857581879961 2.2475e-05 deg
tp 2459842.111930653714
(2022-Sep-19.61193065)
0.00013364 TDB
period 2121.499166968029
5.81
2.4553e-05
6.722e-08
d
yr
n .1696913228179576 1.9639e-09 deg/d
Q 3.662120866562279 2.8255e-08 au
  Orbit Determination Parameters
   # obs. used (total)      1336  
   data-arc span      21681 days (59.36 yr)  
   first obs. used      1960-09-24  
   last obs. used      2020-02-03  
   planetary ephem.      DE431  
   SB-pert. ephem.      SB431-N16  
   condition code      0  
   norm. resid. RMS      .53524  
   source      ORB  
   producer      Otto Matic  
   solution date      2020-Feb-22 22:00:30  

Additional Information
 Earth MOID = 1.85438 au 
 Jupiter MOID = 1.5929 au 
 T_jup = 3.093 
[ show covariance matrix ]

Ephemeris | Orbit Diagram | Orbital Elements | Mission Design | Physical Parameters | Discovery Circumstances | Close-Approach Data ]

Physical Parameter Table
Parameter Symbol Value Units Sigma Reference Notes
absolute magnitude H 13.3   n/a MPO384903  
diameter diameter 14.921 km 0.147 urn:nasa:pds:neowise_diameters_albedos::2.0[mainbelt] (http://adsabs.harvard.edu/abs/2011ApJ...741...68M)  
geometric albedo albedo 0.045   0.008 urn:nasa:pds:neowise_diameters_albedos::2.0[mainbelt] (http://adsabs.harvard.edu/abs/2011ApJ...741...68M)  

17289 (2037 P-L)          Discovered 1960-Sep-24 by van Houten, C. J., van Houten-Groeneveld, I., Gehrels, T. at Palomar
Reference: 20000913/Numbers.arcLast Updated: 2004-04-19

[ show close-approach data ]
Alternate Designations
 2037 P-L = 1981 EC37 
Ephemeris | Orbit Diagram | Orbital Elements | Mission Design | Physical Parameters | Discovery Circumstances | Close-Approach Data ]
ABOUT SSD CREDITS/AWARDS PRIVACY/COPYRIGHT GLOSSARY LINKS
FirstGov 2020-Apr-01 12:28 UT
(server date/time)  
NASA Home Page
Site Manager:   Ryan S. Park
Webmaster  Alan B. Chamberlin